Simultaneous Nadir Overpasses (SNOs) Predictions

Prediction of SNOs between TERRA and METOP-C Satellite Orbit:

Table of predicted SNOs for the next 14.0 days since TLE Epoch: 8/26/2022
Index Date (TERRA) Time (TERRA) Lat,Lon (TERRA) SZA (TERRA ) Date (METOP-C) Time (METOP-C) Lat,Lon (METOP-C) SZA (METOP-C ) Distance(km) Time Diff (sec)
1 08/27/2022 14:54:04 81.16, -3.41 73.30 08/27/2022 14:53:55 81.15, -3.58 73.28 2.99 9
2 08/27/2022 15:43:30 -81.18, 164.53 106.64 08/27/2022 15:44:33 -81.18, 164.45 106.63 1.33 63
3 08/30/2022 09:38:53 -81.04,-106.28 105.96 08/30/2022 09:37:39 -81.08,-106.40 105.97 4.93 74
4 08/30/2022 10:28:14 81.17, 63.17 74.34 08/30/2022 10:28:15 81.16, 63.04 74.32 2.44 1
5 08/30/2022 11:17:40 -81.19,-128.86 105.60 08/30/2022 11:18:53 -81.18,-128.91 105.58 1.19 73
6 09/02/2022 05:12:59 -81.15, -38.30 104.69 09/02/2022 05:11:55 -81.15, -38.29 104.72 0.60 64
7 09/02/2022 06:02:25 81.15, 129.32 75.33 09/02/2022 06:02:36 81.15, 129.25 75.33 1.35 11
8 09/05/2022 00:47:09 -81.13, 27.82 103.68 09/05/2022 00:46:15 -81.14, 27.92 103.69 1.85 54
9 09/05/2022 01:36:34 81.15,-164.22 76.38 09/05/2022 01:36:55 81.16,-164.19 76.40 0.79 21
10 09/07/2022 20:21:19 -81.13, 94.25 102.62 09/07/2022 20:20:36 -81.13, 94.10 102.65 2.50 43



Historial Predications of SNOs between TERRA and METOP-C
